Regional Weather Roundup
Issued by NWS

Home | Current Version | Previous Version | Text Only | Print | Product List | Glossary Off
Versions: 1 2 3 4 5 6 7 8 9 10 11 12 13 14 15 16 17 18 19 20 21 22 23 24 25 26 27 28 29 30 31 32 33 34 35 36 37 38 39 40 41 42 43 44 45 46 47 48 49 50

000
ASUS43 KDMX 241107
RWRIA

WEATHER ROUNDUP FOR IOWA
NATIONAL WEATHER SERVICE DES MOINES IA
600 AM CDT SUN MAY 24 2015

NOTE: "FAIR" INDICATES FEW OR NO CLOUDS BELOW 12,000 FEET WITH NO
SIGNIFICANT WEATHER AND/OR OBSTRUCTIONS TO VISIBILITY.

* - THESE STATIONS ARE NOT NWS STATIONS...THUS NOT UNDER NWS
QUALITY CONTROL.  THEY ALSO DO NOT REPORT WEATHER SUCH
AS PRECIPITATION OR FOG.

IAZ001>003-012>014-020>022-031>034-043>046-241200-
   NORTHWEST IOWA

CITY           SKY/WX    TMP DP  RH WIND       PRES   REMARKS
CARROLL *      CLOUDY    59  59 100 E10       29.96F
CHEROKEE *     CLOUDY    59  59 100 E9        29.96S
DENISON *      CLOUDY    59  59 100 E13       29.92F
LE MARS *      CLOUDY    61  59  94 E7        29.96S
ORANGE CITY *  CLOUDY    57  57 100 E8        29.95F
SHELDON *      CLOUDY    59 N/A N/A E12       29.95F
SIOUX CITY     CLOUDY    61  57  87 E10       29.93F
SPENCER        CLOUDY    59  57  93 E9        29.98F
STORM LAKE *   CLOUDY    59  57  94 E12       29.98S
$$

IAZ055>058-069>071-079>083-090>094-241200-
   SOUTHWEST IOWA

CITY           SKY/WX    TMP DP  RH WIND       PRES   REMARKS
ATLANTIC *     RAIN      61  61 100 E13G18    29.93S
AUDUBON *      CLOUDY    59  55  88 E8        29.96S
CLARINDA *     CLOUDY    63  61  94 SE9G18    29.90F
COUNCIL BLFS * CLOUDY    59  59 100 E12G18    29.90F FOG
CRESTON *      LGT RAIN  59  59 100 E16G22    29.93F
HARLAN  *      CLOUDY    59  59 100 E9        29.96S
LAMONI         CLOUDY    63  59  87 SE12G17   29.93F
RED OAK *      DRIZZLE   61  61 100 E8        29.90F
SHENANDOAH *   LGT RAIN  61  61 100 E6        29.88F
$$

IAZ047>049-059>061-072>074-084-241200-
   CENTRAL IOWA

CITY           SKY/WX    TMP DP  RH WIND       PRES   REMARKS
AMES           LGT RAIN  59  57  93 E8        30.00S FOG
ANKENY *       LGT RAIN  59  59 100 SE8       29.99F
CHARITON *     LGT RAIN  59  59 100 SE12G17   29.97F
DES MOINES     RAIN      60  58  92 E9        29.98F FOG
GRINNELL*      RAIN      59  57  94 E13       30.03F
KNOXVILLE *    LGT RAIN  59  57  94 SE9       29.99S
MARSHALLTOWN   RAIN      58  57  97 SE13      30.03R FOG
PELLA *        RAIN      59  59 100 SE9G16    30.01F
PERRY *        LGT RAIN  59  57  94 E12       29.97F
$$

IAZ004>006-015-016-023>025-035-036-241200-
   NORTH CENTRAL IOWA

CITY           SKY/WX    TMP DP  RH WIND       PRES   REMARKS
ALGONA *       DRIZZLE   59  59 100 E12       30.02F
CLARION *      CLOUDY    59  59 100 E7        30.02F
ESTHERVILLE    CLOUDY    57  56  96 E12       30.00F
MASON CITY     LGT RAIN  59  56  89 E10       30.06F
FOREST CITY *  CLOUDY    55  55 100 E8        30.04F
IOWA FALLS *   RAIN      59  55  88 E7        30.03F
$$

IAZ007>011-017>019-026>030-037>042-050>054-066-241200-
   NORTHEAST IOWA

CITY           SKY/WX    TMP DP  RH WIND       PRES   REMARKS
CEDAR RAPIDS   LGT RAIN  58  57  97 E7        30.06F
CHARLES CITY * CLOUDY    61  57  88 E7        30.07F
CLINTON *      CLOUDY    59  54  82 E10       30.14F
DECORAH *      CLOUDY    61  52  72 SE3       30.09F
DUBUQUE        CLOUDY    59  52  77 S8        30.12F
MONTICELLO *   CLOUDY    59  57  94 E8        30.09F
OELWEIN *      CLOUDY    61  54  77 SE12      30.08F
WATERLOO       CLOUDY    60  55  83 E8        30.04F
$$

IAZ064-065-067-068-078-241200-
   EAST CENTRAL IOWA

CITY           SKY/WX    TMP DP  RH WIND       PRES   REMARKS
DAVENPORT      CLOUDY    60  54  80 E10       30.11F
IOWA CITY      LGT RAIN  59  55  87 SE3       30.09F
MT. PLEASANT * LGT RAIN  59  59 100 SE7       30.08S
MUSCATINE *    MOCLDY    61  57  88 SE5       30.09R
QUAD CITIES    CLOUDY    60  55  83 E9        30.11F
$$

IAZ062-063-075>077-085>089-095>099-241200-
   SOUTHEAST IOWA

CITY           SKY/WX    TMP DP  RH WIND       PRES   REMARKS
BURLINGTON     LGT RAIN  60  58  92 SE7       30.09F
FAIRFIELD *    LGT RAIN  59  57  94 SE9       30.06S
FORT MADISON * LGT RAIN  59  57  94 E9        30.08F
KEOKUK *       RAIN      59  59 100 E8        30.07R
OSKALOOSA *    RAIN      59  57  94 SE12      30.03F
CENTERVILLE *  LGT RAIN  59  59 100 E14       30.00F
OTTUMWA        RAIN      59  59 100 SE12      30.02F FOG
WASHINGTON *   CLOUDY    61  59  94 E6        30.09R FOG
$$

ABBREVIATIONS USED IN REMARKS
   TC - TEMPERATURES IN CELSIUS
  WCI - WIND CHILL INDEX
   HX - HEAT INDEX
  VSB - VISIBILITY
$$



USA.gov is the U.S. government's official web portal to all federal, state and local government web resources and services.